Location: Zaragoza
(41.6330°N, 0.8830°W)
Time: 03:15:43
(UTC+01:00)

ISS - Visible Passes

Search period start: 19 February 2019 00:00
Search period end: 01 March 2019 00:00
Orbit: 403 x 411 km, 51.6° (Epoch: 19 February)

Date Brightness Start Highest point End Pass type
(mag) Time Alt. Az. Time Alt. Az. Time Alt. Az.
22 Feb -2.2 07:21:43 10° SSW 07:24:45 36° SE 07:27:48 10° ENE visible
23 Feb -1.2 06:30:57 10° S 06:33:24 20° SE 06:35:51 10° E visible
24 Feb -0.7 05:41:25 10° SE 05:42:07 11° SE 05:42:49 10° ESE visible
24 Feb -3.8 07:14:54 10° SW 07:18:09 87° NW 07:21:26 10° NE visible
25 Feb -3.0 06:24:38 19° SSW 06:26:41 48° SE 06:29:51 10° ENE visible
26 Feb -1.8 05:35:38 25° ESE 05:35:38 25° ESE 05:38:02 10° ENE visible
26 Feb -3.2 07:08:34 10° W 07:11:40 39° NNW 07:14:47 10° NE visible
27 Feb -3.9 06:19:12 44° W 06:20:03 67° NNW 06:23:19 10° NE visible
28 Feb -1.9 05:29:54 30° ENE 05:29:54 30° ENE 05:31:45 10° ENE visible
28 Feb -2.3 07:02:37 10° WNW 07:05:16 23° NNW 07:07:59 10° NE visible
